Location: Tamazert
(32.6352°N, 5.2072°W)
Time: 06:56:13
(UTC+00:00)

Tiros 1 despin weight - Pass Details

Date: 07 October 2022
Orbit: 590 x 637 km, 48.2° (Epoch: 28 November)

Event Time Altitude Azimuth Distance (km) Brightness Sun altitude
Rises 12:46:20 0° 205° (SSW) 2,801 ? 50.7°
Reaches altitude 10° 12:48:48 10° 194° (SSW) 1,906 ? 50.6°
Maximum altitude 12:52:38 30° 133° (SE) 1,061 ? 50.3°
Drops below altitude 10° 12:56:30 10° 71° (ENE) 1,931 ? 50.1°
Sets 12:59:00 0° 61° (ENE) 2,844 ? 49.9°
